Fremont, NE

4:26 AM CDT on April 27, 2017 (GMT -0500)
Fremont Municipal

Weather History for KFET - May, 2014

Change the Weather History Date:

Friday, May 16, 2014

  Actual Average Record
Temperature  
Mean Temperature 44 °F -  
Max Temperature 56 °F 78 °F 89 °F (1997)
Min Temperature 32 °F 50 °F 32 °F (2014)
Degree Days  
Heating Degree Days 21    
Moisture  
Dew Point 31 °F    
Average Humidity 60    
Maximum Humidity 92    
Minimum Humidity 36    
Precipitation  
Precipitation 0.00 in - - ()
Sea Level Pressure  
Sea Level Pressure 30.11 in    
Wind  
Wind Speed 3 mph (West)    
Max Wind Speed 10 mph    
Max Gust Speed -    
Visibility 10 miles    
Events      
Averages and records for this station are not official NWS values.
T = Trace of Precipitation, MM = Missing Value Source: NWS Daily Summary

Daily Weather History Graph

Daily Weather History Graph

Search for Another Location

Airport or City:

Trip Planner

Search our weather history database for the weather conditions in past years. The results will help you decide how hot, cold, wet, or windy it might be!

Date:

Astronomy

May. 16, 2014 Rise Set
Actual Time 6:06 AM CDT 8:39 PM CDT
Civil Twilight 5:34 AM CDT 9:11 PM CDT
Nautical Twilight 4:55 AM CDT 9:50 PM CDT
Astronomical Twilight 4:10 AM CDT 10:35 PM CDT
Moon 10:47 PM CDT (5/16) 7:48 AM CDT (5/16)
Length of Visible Light 15h 36m
Length of Day
14h 33m
Waning Gibbous, 95% of the Moon is Illuminated
May 16
Waning Gibbous
May 21
Last Quarter
May 28
New
Jun 5
First Quarter
Jun 12
Full

Hourly Weather History & Observations

Time (CDT) Temp. Windchill Dew Point Humidity Pressure Visibility Wind Dir Wind Speed Gust Speed Precip Events Conditions
12:15 AM 40.5 °F - 28.6 °F 63% 30.17 in 10.0 mi Calm Calm - N/A   Clear
12:35 AM 38.8 °F - 29.3 °F 69% 30.16 in 10.0 mi Calm Calm - N/A   Clear
1:15 AM 36.5 °F - 30.4 °F 78% 30.16 in 10.0 mi Calm Calm - N/A   Clear
1:35 AM 35.2 °F - 30.6 °F 83% 30.16 in 10.0 mi Calm Calm - N/A   Clear
1:55 AM 36.7 °F - 30.0 °F 77% 30.15 in 10.0 mi Calm Calm - N/A   Clear
2:15 AM 36.9 °F - 29.5 °F 75% 30.15 in 10.0 mi Calm Calm - N/A   Clear
2:35 AM 35.2 °F - 30.2 °F 82% 30.14 in 10.0 mi Calm Calm - N/A   Clear
2:55 AM 34.5 °F 31.6 °F 30.2 °F 84% 30.14 in 10.0 mi WNW 3.5 mph - N/A   Clear
3:15 AM 33.8 °F - 30.7 °F 89% 30.13 in 10.0 mi Calm Calm - N/A   Clear
3:35 AM 32.9 °F 29.8 °F 30.2 °F 90% 30.14 in 10.0 mi WNW 3.5 mph - N/A   Clear
3:55 AM 32.5 °F 28.1 °F 30.4 °F 92% 30.13 in 10.0 mi WNW 4.6 mph - N/A   Clear
4:15 AM 32.4 °F 29.1 °F 30.2 °F 92% 30.14 in 10.0 mi WNW 3.5 mph - N/A   Clear
4:35 AM 32.9 °F 28.5 °F 30.4 °F 90% 30.14 in 10.0 mi WNW 4.6 mph - N/A   Clear
4:55 AM 32.9 °F 29.8 °F 30.7 °F 92% 30.13 in 10.0 mi NW 3.5 mph - N/A   Clear
5:15 AM 33.8 °F - 30.9 °F 89% 30.13 in 10.0 mi Calm Calm - N/A   Clear
5:35 AM 32.5 °F - 30.6 °F 92% 30.13 in 10.0 mi Calm Calm - N/A   Clear
5:55 AM 32.2 °F 28.9 °F 30.0 °F 92% 30.13 in 10.0 mi NW 3.5 mph - N/A   Clear
6:15 AM 32.2 °F 26.7 °F 29.3 °F 89% 30.13 in 10.0 mi West 5.8 mph - N/A   Clear
6:35 AM 32.5 °F 29.3 °F 29.5 °F 88% 30.14 in 10.0 mi West 3.5 mph - N/A   Clear
6:55 AM 32.9 °F 27.5 °F 30.2 °F 90% 30.14 in 10.0 mi West 5.8 mph - N/A   Clear
7:15 AM 34.3 °F 31.4 °F 31.1 °F 88% 30.13 in 10.0 mi WNW 3.5 mph - N/A   Clear
7:35 AM 35.1 °F - 31.1 °F 85% 30.14 in 10.0 mi Calm Calm - N/A   Clear
7:55 AM 37.9 °F 35.5 °F 32.2 °F 80% 30.14 in 10.0 mi WNW 3.5 mph - N/A   Clear
8:15 AM 39.4 °F 36.1 °F 32.5 °F 76% 30.14 in 10.0 mi WNW 4.6 mph - N/A   Clear
8:35 AM 41.5 °F - 33.1 °F 72% 30.14 in 10.0 mi Calm Calm - N/A   Clear
8:55 AM 43.0 °F - 32.2 °F 66% 30.13 in 10.0 mi Calm Calm - N/A   Clear
9:15 AM 44.1 °F - 31.8 °F 62% 30.13 in 10.0 mi Calm Calm - N/A   Clear
9:35 AM 45.1 °F - 30.4 °F 56% 30.12 in 10.0 mi Calm Calm - N/A   Clear
9:55 AM 47.5 °F - 29.8 °F 50% 30.12 in 10.0 mi Calm Calm - N/A   Clear
10:15 AM 48.4 °F - 29.8 °F 49% 30.12 in 10.0 mi Calm Calm - N/A   Clear
10:35 AM 50.9 °F - 31.1 °F 47% 30.11 in 10.0 mi SSW 4.6 mph - N/A   Clear
10:55 AM 49.6 °F - 28.6 °F 44% 30.11 in 10.0 mi Calm Calm - N/A   Clear
11:15 AM 50.7 °F - 27.9 °F 41% 30.11 in 10.0 mi Calm Calm - N/A   Clear
11:35 AM 51.4 °F - 29.7 °F 43% 30.11 in 10.0 mi Calm Calm - N/A   Clear
11:55 AM 51.3 °F - 27.7 °F 40% 30.11 in 10.0 mi Calm Calm - N/A   Clear
12:15 PM 52.3 °F - 28.9 °F 41% 30.10 in 10.0 mi Calm Calm - N/A   Scattered Clouds
12:35 PM 52.5 °F - 28.9 °F 40% 30.10 in 10.0 mi Calm Calm - N/A   Scattered Clouds
12:55 PM 53.1 °F - 27.9 °F 38% 30.10 in 10.0 mi Calm Calm - N/A   Clear
1:15 PM 53.6 °F - 28.9 °F 39% 30.09 in 10.0 mi Calm Calm - N/A   Clear
1:35 PM 54.9 °F - 28.6 °F 37% 30.10 in 10.0 mi Calm Calm - N/A   Clear
1:55 PM 53.8 °F - 28.0 °F 37% 30.10 in 10.0 mi SW 5.8 mph - N/A   Clear
2:15 PM 54.9 °F - 28.2 °F 36% 30.09 in 10.0 mi WSW 6.9 mph - N/A   Clear
2:35 PM 54.0 °F - 27.1 °F 36% 30.09 in 10.0 mi WSW 5.8 mph - N/A   Clear
2:55 PM 54.7 °F - 27.9 °F 36% 30.08 in 10.0 mi Calm Calm - N/A   Clear
3:15 PM 54.9 °F - 28.0 °F 36% 30.07 in 10.0 mi Calm Calm - N/A   Clear
3:35 PM 55.6 °F - 29.1 °F 36% 30.07 in 10.0 mi SW 3.5 mph - N/A   Clear
3:55 PM 55.9 °F - 30.2 °F 37% 30.07 in 10.0 mi South 4.6 mph - N/A   Clear
4:15 PM 55.6 °F - 28.6 °F 36% 30.07 in 10.0 mi SW 3.5 mph - N/A   Scattered Clouds
4:35 PM 56.7 °F - 31.8 °F 39% 30.07 in 10.0 mi SW 6.9 mph - N/A   Scattered Clouds
4:55 PM 55.6 °F - 31.1 °F 39% 30.06 in 10.0 mi SW 6.9 mph - N/A   Clear
5:15 PM 55.2 °F - 31.5 °F 40% 30.07 in 10.0 mi West 6.9 mph - N/A   Scattered Clouds
5:35 PM 55.8 °F - 32.0 °F 41% 30.07 in 10.0 mi West 6.9 mph - N/A   Scattered Clouds
5:55 PM 55.4 °F - 32.5 °F 42% 30.07 in 10.0 mi SW 5.8 mph - N/A   Mostly Cloudy
6:15 PM 56.1 °F - 31.8 °F 40% 30.07 in 10.0 mi WSW 9.2 mph - N/A   Scattered Clouds
6:35 PM 56.3 °F - 31.1 °F 38% 30.07 in 10.0 mi West 8.1 mph - N/A   Scattered Clouds
6:55 PM 55.8 °F - 30.9 °F 39% 30.07 in 10.0 mi West 10.4 mph - N/A   Scattered Clouds
7:15 PM 55.8 °F - 30.7 °F 39% 30.08 in 10.0 mi WSW 9.2 mph - N/A   Scattered Clouds
7:35 PM 54.9 °F - 32.0 °F 42% 30.08 in 10.0 mi WSW 8.1 mph - N/A   Clear
7:55 PM 54.5 °F - 32.0 °F 42% 30.09 in 10.0 mi West 8.1 mph - N/A   Clear
8:15 PM 53.6 °F - 32.4 °F 44% 30.09 in 10.0 mi WSW 5.8 mph - N/A   Clear
8:35 PM 52.0 °F - 33.4 °F 49% 30.10 in 10.0 mi WSW 5.8 mph - N/A   Clear
8:55 PM 51.1 °F - 33.4 °F 51% 30.11 in 10.0 mi SW 5.8 mph - N/A   Clear
9:15 PM 50.9 °F - 34.0 °F 52% 30.11 in 10.0 mi WSW 8.1 mph - N/A   Clear
9:35 PM 50.4 °F - 36.5 °F 59% 30.12 in 10.0 mi WSW 10.4 mph - N/A   Clear
9:55 PM 50.9 °F - 37.6 °F 60% 30.12 in 10.0 mi WSW 9.2 mph - N/A   Mostly Cloudy
10:15 PM 49.3 °F - 37.8 °F 65% 30.13 in 10.0 mi WSW 9.2 mph - N/A   Scattered Clouds
10:35 PM 49.1 °F - 38.3 °F 66% 30.13 in 10.0 mi WSW 6.9 mph - N/A   Clear
10:55 PM 47.8 °F - 39.2 °F 72% 30.13 in 10.0 mi WSW 8.1 mph - N/A   Scattered Clouds
11:15 PM 48.0 °F - 39.2 °F 72% 30.13 in 10.0 mi West 9.2 mph - N/A   Scattered Clouds
11:35 PM 46.4 °F 42.4 °F 39.2 °F 76% 30.14 in 10.0 mi West 8.1 mph - N/A   Clear
11:55 PM 45.3 °F 40.6 °F 39.6 °F 80% 30.14 in 10.0 mi West 9.2 mph - N/A   Clear